Location: Brasstown Bald
(34.8693°N, 83.8103°W)
Time: 03:16:37
(UTC-04:00)

Amateur Radio Satellites - All Passes

Search period start: 30 May 2017 02:46
Search period end: 31 May 2017 02:46
Location: Brasstown Bald, 34.8693°N, 83.8103°W

Satellite Date Start Highest point End Downlink Frequencies (MHz)
Time Altitude Azimuth
UKube-1 30 May 02:54:14 02:57:59 29° 263° (W) 03:01:44 .
Oscar 19 30 May 03:00:36 03:05:45 73° 102° (ESE) 03:10:52 437.125/150
MOZHAYETS 4 30 May 03:04:33 03:06:42 13° 65° (ENE) 03:08:50
Gurwin Techsat 1B 30 May 03:08:26 03:13:37 50° 100° (E) 03:18:44 435.225
DX 1 30 May 03:11:44 03:13:44 13° 267° (W) 03:15:44 434.975-435.025
PCSat 30 May 03:15:05 03:17:12 12° 46° (NE) 03:19:18 145.827
O/OREOS (USA 219) 30 May 03:15:46 03:19:27 24° 102° (ESE) 03:23:07 437.305
ITUPSAT 1 30 May 03:22:26 03:26:51 39° 72° (ENE) 03:31:19 437.325
ISS 30 May 03:24:32 03:27:48 73° 224° (SW) 03:31:02 437.550
Tancredo 1 30 May 03:52:31 03:54:34 17° 231° (SW) 03:56:36 437.200
BEESAT 30 May 03:53:00 03:57:44 88° 81° (E) 04:02:32 436.000
ITAMSAT 1 30 May 04:11:06 04:15:23 25° 96° (E) 04:19:37 435.822/435.867
YUBILEINY 30 May 04:12:45 04:16:20 13° 296° (WNW) 04:19:56 435.215
JUGNU 30 May 04:17:43 04:21:40 18° 180° (S) 04:25:37 437.505
AO-85 30 May 04:19:41 04:23:55 74° 119° (ESE) 04:27:57 145.980
RS-15 30 May 04:27:37 04:38:27 36° 316° (NW) 04:49:32 29.354- 29.394
BEESAT 2 30 May 04:37:44 04:38:08 10° 107° (ESE) 04:38:32 435.950
MOZHAYETS 4 30 May 04:38:50 04:43:20 53° 260° (W) 04:47:51
Oscar 19 30 May 04:42:32 04:44:23 12° 297° (WNW) 04:46:14 437.125/150
BEESAT 3 30 May 04:45:23 04:49:06 42° 114° (ESE) 04:52:53 437.485
Gurwin Techsat 1B 30 May 04:49:37 04:53:05 18° 295° (WNW) 04:56:35 435.225
O/OREOS (USA 219) 30 May 04:54:47 04:58:41 27° 297° (WNW) 05:02:36 437.305
PCSat 30 May 04:55:54 05:01:22 87° 66° (ENE) 05:06:46 145.827
AO-7 30 May 04:58:49 05:07:07 63° 104° (ESE) 05:15:22 .
ITUPSAT 1 30 May 05:01:36 05:04:47 18° 266° (W) 05:08:00 437.325
KKS-1 30 May 05:04:13 05:08:18 37° 72° (ENE) 05:12:22 437.445
SRMSAT 30 May 05:05:17 05:08:32 15° 169° (S) 05:11:46 437.500
STARS 30 May 05:24:38 05:28:13 25° 70° (ENE) 05:31:48 437.465
CUBESAT XI-V 30 May 05:34:57 05:39:40 80° 259° (WSW) 05:44:24 437.345
ITAMSAT 1 30 May 05:50:10 05:54:48 33° 290° (WNW) 05:59:26 435.822/435.867
JUGNU 30 May 06:06:48 06:09:57 15° 190° (S) 06:13:07 437.505
BEESAT 2 30 May 06:11:30 06:15:21 52° 301° (WNW) 06:19:17 435.950
DOVE 4 30 May 06:24:16 06:27:06 17° 95° (E) 06:30:00 437.250
BEESAT 3 30 May 06:24:34 06:26:53 15° 311° (NW) 06:29:13 437.485
CUTE-I 30 May 06:36:13 06:38:16 12° 92° (E) 06:40:20 437.470
KKS-1 30 May 06:42:12 06:44:56 16° 266° (W) 06:47:40 437.445
RS-15 30 May 06:50:29 06:56:29 14° 349° (N) 07:02:27 29.354- 29.394
NO-84 30 May 06:50:33 06:53:42 20° 122° (ESE) 06:56:52 435.350 FM
AO-7 30 May 06:52:38 06:59:14 27° 301° (WNW) 07:05:51 .
SRMSAT 30 May 06:52:56 06:56:59 19° 180° (S) 07:01:01 437.500
LilacSat-2 30 May 06:57:47 07:00:47 21° 96° (E) 07:03:46 437.200
STRAND 1 30 May 06:57:52 07:00:21 14° 64° (ENE) 07:02:51 437.568
STARS 30 May 07:01:01 07:04:28 23° 264° (W) 07:07:56 437.465
SO-50 30 May 07:16:19 07:20:43 51° 58° (ENE) 07:25:08 436.795
XW-2D 30 May 07:26:35 07:30:20 51° 100° (E) 07:34:02 145.860 - 145.880
NUDT-PHONESAT 30 May 07:30:56 07:34:31 41° 99° (E) 07:38:04 437.300
XW-2B 30 May 07:34:35 07:38:25 63° 101° (E) 07:42:11 145.730 - 145.750
XW-2F 30 May 07:44:14 07:48:05 84° 102° (ESE) 07:51:53 145.980 - 146.000
KAITUO 1B 30 May 07:45:00 07:48:47 68° 101° (E) 07:52:31 145.475/437.950
XW-2C 30 May 07:48:27 07:52:18 80° 282° (WNW) 07:56:06 145.795 - 145.815
DOVE 4 30 May 08:01:03 08:04:49 32° 287° (WNW) 08:08:42 437.250
HO-68 30 May 08:08:11 08:14:16 29° 96° (E) 08:20:18 435.675
CUTE-I 30 May 08:13:24 08:18:44 68° 285° (WNW) 08:24:02 437.470
CUTE 1.7 + AOD 2 30 May 08:19:06 08:22:41 26° 96° (E) 08:26:13 437.475
NO-84 30 May 08:26:47 08:31:02 48° 316° (NW) 08:35:15 435.350 FM
XW-2A 30 May 08:31:20 08:34:21 28° 97° (E) 08:37:21 145.665 - 145.685
LilacSat-2 30 May 08:31:59 08:34:55 21° 290° (WNW) 08:37:50 437.200
STRAND 1 30 May 08:33:55 08:38:57 62° 259° (WSW) 08:44:01 437.568
SRMSAT 30 May 08:42:07 08:45:26 15° 190° (S) 08:48:45 437.500
SO-50 30 May 08:58:30 09:00:42 14° 252° (WSW) 09:02:55 436.795
SEEDS 30 May 09:00:05 09:04:11 51° 100° (E) 09:08:14 437.485
NUDT-PHONESAT 30 May 09:07:00 09:07:59 11° 293° (WNW) 09:08:57 437.300
RS-15 30 May 09:08:01 09:16:21 20° 27° (NNE) 09:24:26 29.354- 29.394
ZACube-1 30 May 09:09:24 09:12:15 16° 93° (E) 09:15:06 437.345
M-CUBED/EXP-1 PRIME 30 May 09:23:48 09:28:01 74° 253° (WSW) 09:31:55 437.505
CUBEBUG 2 30 May 09:38:24 09:43:04 75° 284° (WNW) 09:47:47 437.445
UWE-3 30 May 09:40:05 09:44:43 68° 101° (E) 09:49:21 435.000/436.395/437.385
FO-29 30 May 09:42:24 09:45:34 17° 64° (ENE) 09:48:49 435.910
PRISM 30 May 09:46:28 09:49:11 17° 68° (ENE) 09:51:53 437.425
AAUSAT CUBESAT 2 30 May 09:47:21 09:51:28 88° 91° (E) 09:55:35 437.432
CUTE 1.7 + AOD 2 30 May 09:55:07 09:58:19 21° 290° (WNW) 10:01:31 437.475
HO-68 30 May 09:55:17 10:02:05 47° 292° (WNW) 10:08:51 435.675
Oscar 11 30 May 09:56:13 10:00:16 37° 98° (E) 10:04:17 .
XW-2A 30 May 10:05:14 10:06:48 13° 291° (WNW) 10:08:22 145.665 - 145.685
NO-84 30 May 10:08:54 10:09:31 10° 334° (NNW) 10:10:07 435.350 FM
TIGRISAT 30 May 10:20:46 10:24:31 31° 71° (ENE) 10:28:21 435.000
AO-73 30 May 10:27:36 10:32:09 70° 284° (WNW) 10:36:42 145.935
SEEDS 30 May 10:38:07 10:39:21 11° 294° (WNW) 10:40:35 437.485
ZACube-1 30 May 10:44:21 10:48:39 40° 286° (WNW) 10:52:54 437.345
UNISAT 6 30 May 10:53:09 10:57:25 85° 77° (ENE) 11:01:47 437.425
DELFI C3 30 May 11:03:46 11:07:39 61° 100° (E) 11:11:31 145.870
UWE-3 30 May 11:19:28 11:20:33 11° 295° (WNW) 11:21:37 435.000/436.395/437.385
RS-15 30 May 11:20:05 11:32:08 61° 55° (NE) 11:43:31 29.354- 29.394
PRISM 30 May 11:20:31 11:24:12 31° 262° (W) 11:27:52 437.425
FO-29 30 May 11:25:14 11:30:12 48° 261° (W) 11:35:21 435.910
QB50P2 30 May 11:32:34 11:34:43 14° 67° (ENE) 11:36:53 145.880/145.840
Oscar 11 30 May 11:33:24 11:36:03 16° 292° (WNW) 11:38:43 .
EO-88 30 May 11:39:25 11:43:04 60° 283° (WNW) 11:46:40 145.990 - 145.960
TIGRISAT 30 May 11:58:18 12:01:14 18° 266° (W) 12:04:13 435.000
EO-79 30 May 12:06:24 12:10:06 31° 72° (ENE) 12:13:49 145.935-145.965
LO-87 30 May 12:08:54 12:12:05 30° 98° (E) 12:15:17 145.935 - 145.965
AIST 2D 30 May 12:22:04 12:25:33 68° 259° (W) 12:29:05 435.315
YUBILEINY 30 May 12:23:58 12:32:21 45° 77° (ENE) 12:40:40 435.215
ESTCUBE 1 30 May 12:25:57 12:29:52 29° 97° (E) 12:33:45 437.505/2401.250
NANOSAT C BR1 30 May 12:48:18 12:52:28 86° 258° (WSW) 12:56:40 145.865
AO-85 30 May 12:54:01 12:57:19 23° 54° (NE) 13:00:44 145.980
DUCHIFAT 1 30 May 12:56:39 13:00:48 76° 258° (WSW) 13:04:59 145.980
POLYITAN 1 30 May 12:57:01 13:01:07 59° 259° (W) 13:05:18 437.675
BUGSAT 1 30 May 12:58:22 13:01:47 28° 72° (ENE) 13:05:15 437.445
VELOX 1 30 May 13:03:53 13:06:50 18° 95° (E) 13:09:46 145.980
QB50P2 30 May 13:06:09 13:10:06 41° 261° (W) 13:14:06 145.880/145.840
BEESAT 3 30 May 13:07:22 13:08:17 11° 47° (NE) 13:09:12 437.485
O/OREOS (USA 219) 30 May 13:28:39 13:32:28 26° 63° (ENE) 13:36:14 437.305
RS-15 30 May 13:33:33 13:43:48 35° 256° (WSW) 13:53:41 29.354- 29.394
EO-79 30 May 13:43:09 13:45:53 17° 266° (W) 13:48:38 145.935-145.965
LO-87 30 May 13:43:36 13:45:13 13° 291° (WNW) 13:46:48 145.935 - 145.965
SPROUT 30 May 14:00:29 14:04:47 90° 279° (W) 14:09:04 437.525
ESTCUBE 1 30 May 14:03:03 14:06:27 22° 291° (WNW) 14:09:52 437.505/2401.250
AO-7 30 May 14:08:18 14:10:53 12° 50° (NE) 14:13:28 .
Oscar 19 30 May 14:13:51 14:19:02 75° 75° (ENE) 14:24:15 437.125/150
YUBILEINY 30 May 14:21:09 14:28:49 35° 274° (W) 14:36:29 435.215
50 SAT 30 May 14:23:15 14:26:38 89° 282° (WNW) 14:30:01 437.505
Gurwin Techsat 1B 30 May 14:26:05 14:31:17 58° 73° (ENE) 14:36:30 435.225
BEESAT 2 30 May 14:32:19 14:35:55 30° 55° (NE) 14:39:29 435.950
AO-85 30 May 14:34:06 14:37:38 27° 247° (WSW) 14:41:21 145.980
BUGSAT 1 30 May 14:34:31 14:37:08 17° 265° (W) 14:39:48 437.445
VELOX 1 30 May 14:39:23 14:43:19 33° 288° (WNW) 14:47:15 145.980
BEESAT 3 30 May 14:42:19 14:46:18 67° 244° (WSW) 14:50:12 437.485
UKube-1 30 May 14:43:45 14:47:59 56° 101° (E) 14:52:12 .
DX 1 30 May 15:00:25 15:04:41 58° 285° (WNW) 15:08:56 434.975-435.025
NO-84 30 May 15:04:24 15:07:38 25° 38° (NE) 15:10:37 435.350 FM
O/OREOS (USA 219) 30 May 15:08:09 15:11:42 23° 258° (WSW) 15:15:13 437.305
ITAMSAT 1 30 May 15:25:54 15:30:14 28° 68° (ENE) 15:34:36 435.822/435.867
ITUPSAT 1 30 May 15:27:54 15:30:08 13° 93° (E) 15:32:23 437.325
AO-7 30 May 15:53:52 16:02:00 64° 69° (ENE) 16:10:10 .
BEESAT 30 May 15:56:48 16:00:57 29° 97° (E) 16:05:04 436.000
Oscar 19 30 May 15:58:11 15:58:49 10° 269° (W) 15:59:26 437.125/150
Gurwin Techsat 1B 30 May 16:08:43 16:11:32 14° 268° (W) 16:14:21 435.225
BEESAT 2 30 May 16:10:33 16:13:26 19° 250° (WSW) 16:16:18 435.950
UKube-1 30 May 16:22:20 16:23:28 11° 295° (WNW) 16:24:37 .
MOZHAYETS 4 30 May 16:37:05 16:41:33 45° 99° (E) 16:45:57
NO-84 30 May 16:42:03 16:45:07 26° 236° (SW) 16:47:58 435.350 FM
ITUPSAT 1 30 May 17:03:32 17:08:14 53° 287° (WNW) 17:12:53 437.325
ITAMSAT 1 30 May 17:05:07 17:09:34 29° 263° (W) 17:14:04 435.822/435.867
DOVE 4 30 May 17:27:48 17:29:48 13° 68° (ENE) 17:31:46 437.250
BEESAT 30 May 17:34:41 17:38:34 25° 291° (WNW) 17:42:25 436.000
CUBESAT XI-V 30 May 17:35:12 17:39:20 32° 97° (E) 17:43:25 437.345
AO-7 30 May 17:48:49 17:55:10 24° 264° (W) 18:01:35 .
PCSat 30 May 17:52:52 17:56:25 18° 105° (ESE) 17:59:58 145.827
CUTE-I 30 May 17:54:32 17:57:37 16° 64° (ENE) 18:00:42 437.470
XW-2D 30 May 18:05:37 18:07:57 16° 69° (ENE) 18:10:17 145.860 - 145.880
NUDT-PHONESAT 30 May 18:08:47 18:10:16 12° 68° (ENE) 18:11:45 437.300
XW-2B 30 May 18:13:17 18:15:59 19° 70° (ENE) 18:18:42 145.730 - 145.750
MOZHAYETS 4 30 May 18:15:33 18:18:16 16° 293° (WNW) 18:20:58
XW-2F 30 May 18:22:10 18:25:12 23° 71° (ENE) 18:28:17 145.980 - 146.000
KAITUO 1B 30 May 18:22:24 18:25:05 19° 70° (ENE) 18:27:48 145.475/437.950
XW-2C 30 May 18:26:31 18:29:48 28° 72° (ENE) 18:33:05 145.795 - 145.815
ISS 30 May 18:26:47 18:29:01 17° 128° (SE) 18:31:15 437.550
KKS-1 30 May 18:34:18 18:38:43 66° 285° (WNW) 18:43:07 437.445
HO-68 30 May 18:35:37 18:39:36 16° 58° (ENE) 18:43:34 435.675
Tancredo 1 30 May 18:45:38 18:48:37 50° 134° (SE) 18:51:36 437.200
STARS 30 May 18:52:20 18:56:45 80° 102° (ESE) 19:01:09 437.465
DOVE 4 30 May 19:02:43 19:07:07 48° 260° (W) 19:11:20 437.250
LilacSat-2 30 May 19:09:14 19:13:04 70° 260° (W) 19:16:56 437.200
CUTE 1.7 + AOD 2 30 May 19:09:51 19:11:52 13° 67° (ENE) 19:13:53 437.475
CUBESAT XI-V 30 May 19:13:02 19:16:28 21° 292° (WNW) 19:19:53 437.345
CUTE-I 30 May 19:31:56 19:37:08 58° 259° (W) 19:42:22 437.470
PCSat 30 May 19:34:05 19:39:20 51° 300° (WNW) 19:44:38 145.827
XW-2D 30 May 19:38:32 19:41:51 28° 263° (W) 19:45:13 145.860 - 145.880
NUDT-PHONESAT 30 May 19:40:21 19:43:47 36° 262° (W) 19:47:16 437.300
XW-2B 30 May 19:46:53 19:49:59 23° 264° (W) 19:53:06 145.730 - 145.750
SEEDS 30 May 19:48:42 19:52:04 23° 70° (ENE) 19:55:27 437.485
KAITUO 1B 30 May 19:55:53 19:58:55 23° 264° (W) 20:01:58 145.475/437.950
XW-2F 30 May 19:56:32 19:59:16 19° 265° (W) 20:02:00 145.980 - 146.000
XW-2C 30 May 20:01:39 20:03:59 16° 266° (W) 20:06:20 145.795 - 145.815
ISS 30 May 20:02:13 20:05:17 36° 323° (NW) 20:08:22 437.550
HO-68 30 May 20:19:10 20:26:21 88° 257° (WSW) 20:33:35 435.675
Tancredo 1 30 May 20:22:41 20:24:33 15° 330° (NNW) 20:26:24 437.200
XW-2A 30 May 20:31:16 20:34:35 64° 260° (W) 20:37:57 145.665 - 145.685
CUBEBUG 2 30 May 20:33:08 20:37:12 57° 75° (ENE) 20:41:24 437.445
AAUSAT CUBESAT 2 30 May 20:33:54 20:37:43 35° 73° (ENE) 20:41:32 437.432
UWE-3 30 May 20:33:58 20:37:44 33° 72° (ENE) 20:41:36 435.000/436.395/437.385
CUTE 1.7 + AOD 2 30 May 20:43:08 20:47:15 45° 261° (W) 20:51:23 437.475
STRAND 1 30 May 20:47:40 20:52:46 59° 101° (E) 20:57:50 437.568
Oscar 11 30 May 20:48:18 20:51:24 20° 69° (ENE) 20:54:32 .
AO-73 30 May 21:19:24 21:23:32 57° 75° (ENE) 21:27:48 145.935
SEEDS 30 May 21:24:10 21:27:37 24° 264° (W) 21:31:05 437.485
SO-50 30 May 21:27:21 21:31:33 36° 114° (ESE) 21:35:43 436.795
ZACube-1 30 May 21:36:10 21:40:23 79° 258° (WSW) 21:44:44 437.345
DELFI C3 30 May 21:46:18 21:49:22 22° 71° (ENE) 21:52:25 145.870
AAUSAT CUBESAT 2 30 May 22:10:49 22:13:15 15° 267° (W) 22:15:40 437.432
UWE-3 30 May 22:11:37 22:14:17 16° 267° (W) 22:16:58 435.000/436.395/437.385
HO-68 30 May 22:12:13 22:14:51 12° 270° (W) 22:17:29 435.675
EO-88 30 May 22:13:52 22:17:06 30° 73° (ENE) 22:20:22 145.990 - 145.960
Oscar 11 30 May 22:23:29 22:27:18 30° 263° (W) 22:31:09 .
STRAND 1 30 May 22:28:37 22:31:24 15° 296° (WNW) 22:34:09 437.568
FO-29 30 May 22:36:01 22:41:51 28° 96° (E) 22:48:06 435.910
M-CUBED/EXP-1 PRIME 30 May 22:39:53 22:43:04 52° 289° (WNW) 22:46:16 437.505
UNISAT 6 30 May 22:48:21 22:52:08 24° 96° (E) 22:55:55 437.425
PRISM 30 May 23:04:36 23:08:27 41° 99° (E) 23:12:17 437.425
SO-50 30 May 23:08:31 23:12:04 22° 309° (NW) 23:15:36 436.795
DELFI C3 30 May 23:20:51 23:24:00 22° 264° (W) 23:27:09 145.870
ESTCUBE 1 30 May 23:22:45 23:25:55 19° 68° (ENE) 23:29:06 437.505/2401.250
EO-88 30 May 23:49:09 23:50:50 13° 267° (W) 23:52:33 145.990 - 145.960
TIGRISAT 30 May 23:51:02 23:55:40 72° 285° (WNW) 00:00:21 435.000
AIST 2D 30 May 23:52:36 23:53:33 11° 93° (E) 23:54:29 435.315
VELOX 1 30 May 23:59:46 00:00:58 11° 65° (ENE) 00:02:12 145.980
LO-87 31 May 00:14:25 00:17:51 50° 260° (W) 00:21:19 145.935 - 145.965
FO-29 31 May 00:20:23 00:26:54 50° 288° (WNW) 00:34:05 435.910
UNISAT 6 31 May 00:24:46 00:28:45 28° 289° (WNW) 00:32:44 437.425
NANOSAT C BR1 31 May 00:36:37 00:39:42 19° 95° (E) 00:42:47 145.865
PRISM 31 May 00:41:29 00:43:20 13° 293° (WNW) 00:45:10 437.425
DUCHIFAT 1 31 May 00:44:30 00:47:45 21° 96° (E) 00:51:00 145.980
POLYITAN 1 31 May 00:45:19 00:48:59 27° 97° (E) 00:52:39 437.675
SPROUT 31 May 00:50:19 00:54:18 42° 73° (ENE) 00:58:18 437.525
50 SAT 31 May 00:52:55 00:55:18 18° 71° (ENE) 00:57:40 437.505
QB50P2 31 May 00:54:01 00:58:01 38° 99° (E) 01:02:00 145.880/145.840
ESTCUBE 1 31 May 00:58:18 01:02:26 35° 262° (W) 01:06:35 437.505/2401.250
Tancredo 1 31 May 01:13:50 01:15:41 15° 30° (NNE) 01:17:31 437.200
YUBILEINY 31 May 01:20:15 01:28:41 58° 90° (E) 01:37:12 435.215
AIST 2D 31 May 01:23:37 01:26:50 33° 286° (WNW) 01:30:03 435.315
EO-79 31 May 01:29:10 01:33:27 85° 281° (W) 01:37:43 145.935-145.965
VELOX 1 31 May 01:32:32 01:36:53 59° 259° (W) 01:41:14 145.980
UKube-1 31 May 01:35:00 01:38:45 30° 71° (ENE) 01:42:32 .
RS-15 31 May 01:37:40 01:49:08 55° 110° (ESE) 02:00:56 29.354- 29.394
DX 1 31 May 01:52:07 01:56:26 76° 76° (ENE) 02:00:47 434.975-435.025
NANOSAT C BR1 31 May 02:11:42 02:15:23 29° 289° (WNW) 02:19:03 145.865
JUGNU 31 May 02:14:52 02:18:13 16° 171° (S) 02:21:36 437.505
BUGSAT 1 31 May 02:17:32 02:21:43 82° 101° (ESE) 02:25:56 437.445
DUCHIFAT 1 31 May 02:19:48 02:23:20 26° 289° (WNW) 02:26:53 145.980
POLYITAN 1 31 May 02:21:22 02:24:35 21° 291° (WNW) 02:27:47 437.675
50 SAT 31 May 02:25:26 02:27:59 19° 264° (W) 02:30:32 437.505
SPROUT 31 May 02:28:26 02:30:22 13° 267° (W) 02:32:18 437.525
Oscar 19 31 May 02:29:11 02:33:51 34° 98° (E) 02:38:27 437.125/150
QB50P2 31 May 02:30:57 02:33:27 15° 293° (WNW) 02:35:57 145.880/145.840
ISS 31 May 02:32:31 02:35:44 51° 39° (NE) 02:38:55 437.550
ITUPSAT 1 31 May 02:32:38 02:34:05 11° 63° (ENE) 02:35:33 437.325
